Tracking 19564 objects as of 18-Mar-2019
HD Live streaming from Space Station
objects crossing your sky now

HESSI

Track HESSI now!
10-day predictions
HESSI is classified as:


NORAD ID: 27370
Int'l Code: 2002-004A
Perigee: 470.5 km
Apogee: 488.2 km
Inclination: 38.0 °
Period: 94.0 minutes
Semi major axis: 6850 km
RCS: 2.4114 m2 (large)
Launch date: February 5, 2002
Source: United States (US)
Launch site: Pegasus launched from Eastern Range Air Space (ERAS)

Explore basic physics of particle acceleration and explosive energy release in solar flares.
aabbcc
Your satellite tracking list
Your tracking list is empty




NASA's NSSDC Master Catalog

Two Line Element Set (TLE):
1 27370U 02004A   19076.53757131 +.00001959 +00000-0 +67964-4 0  9990
2 27370 038.0326 108.7873 0012917 201.6765 158.3460 15.31211037944079
Source of the keplerian elements: AFSPC